Printer-friendly version

IAU Minor Planet Center

Minor Planet Center

MPEC 2006-E34 : 2006 EV52

The following Minor Planet Electronic Circular may be linked-to from your own Web pages, but must not otherwise be redistributed electronically.


Read MPEC 2006-E33 Read MPEC 2006-E35


M.P.E.C. 2006-E34                                Issued 2006 Mar.  9, 18:09 UT

     The Minor Planet Electronic Circulars contain information on unusual
         minor planets and routine data on comets.  They are published
   on behalf of Commission 20 of the International Astronomical Union by the
          Minor Planet Center, Smithsonian Astrophysical Observatory,
                          Cambridge, MA 02138, U.S.A.

                  Supported in part by the Brinson Foundation
                  Supported in part by the TABASGO Foundation
             Prepared using the Tamkin Foundation Computer Network

                              MPC@CFA.HARVARD.EDU
          URL http://cfa-www.harvard.edu/iau/mpc.html  ISSN 1523-6714

                                   2006 EV52

Observations:
     K06E52V* C2006 03 02.29958 11 57 58.01 +02 17 20.3          22.0 V EE034691
     K06E52V  C2006 03 02.31684 11 57 56.98 +02 17 29.6          21.4 V EE034691
     K06E52V  C2006 03 02.33411 11 57 55.92 +02 17 39.2          21.6 V EE034691
     K06E52V  C2006 03 06.30688 11 53 50.99 +02 56 18.0          21.4 V EE034691
     K06E52V  C2006 03 06.32424 11 53 49.82 +02 56 28.8          21.4 V EE034691
     K06E52V  C2006 03 06.34158 11 53 48.64 +02 56 39.2          21.2 V EE034691
     K06E52V  C2006 03 09.23512 11 50 41.81 +03 25 42.3                 EE034291
     K06E52V  C2006 03 09.23889 11 50 41.57 +03 25 44.3                 EE034291
     K06E52V  C2006 03 09.24274 11 50 41.29 +03 25 47.3                 EE034291

Observer details:
291 LPL/Spacewatch II.  Observer T. H. Bressi.  1.8-m f/2.7 reflector + CCD.
691 Steward Observatory, Kitt Peak.  Observers R. S. McMillan, M. Block.
    0.9-m f/3 reflector + CCD.

Orbital elements:
2006 EV52                                                Earth MOID = 0.2772 AU
Epoch 2006 Mar. 6.0 TT = JDT 2453800.5                  MPC
M 254.33654              (2000.0)            P               Q
n   0.33557346     Peri.  166.42998     +0.91093097     +0.40876216
a   2.0508992      Node   168.93516     -0.40045293     +0.90861267
e   0.7310546      Incl.   16.91558     -0.09920796     +0.08565348
P   2.94           H   17.0           G   0.15           U   9
Residuals in seconds of arc
060302 691  0.2-  0.5+    060306 691  0.7+  0.3-    060309 291  0.0   0.0
060302 691  0.1+  0.1-    060306 691  0.0   0.1+    060309 291  0.2+  0.3-
060302 691  0.1+  0.4-    060306 691  0.8-  0.2+    060309 291  0.2-  0.3+

Ephemeris:
2006 EV52                a,e,i = 2.05, 0.73, 17                  q = 0.5514
Date    TT    R. A. (2000) Decl.     Delta      r     Elong.  Phase     V
2006 03 06    11 54.17   +02 53.3    2.139    3.115   167.5     4.0    21.5
2006 03 16    11 43.07   +04 35.5    2.079    3.073   177.3     0.9    21.2
2006 03 26    11 31.43   +06 19.1    2.053    3.029   165.5     4.7    21.4
2006 04 05    11 20.25   +07 56.0    2.059    2.983   152.6     8.9    21.5
2006 04 15    11 10.48   +09 19.3    2.094    2.934   140.0    12.7    21.7
2006 04 25    11 02.80   +10 25.1    2.152    2.884   128.1    15.9    21.8
2006 05 05    10 57.62   +11 11.6    2.227    2.830   117.0    18.5    21.9
2006 05 15    10 55.05   +11 39.4    2.312    2.775   106.6    20.4    22.0

Gareth V. Williams           (C) Copyright 2006 MPC           M.P.E.C. 2006-E34

Read MPEC 2006-E33 Read MPEC 2006-E35


Our Web policy. Index to the CBAT/MPC/ICQ pages.


Valid HTML 4.01!